Time,TemperatureF,DewpointF,PressureIn,WindDirection,WindDirectionDegrees,WindSpeedMPH,WindSpeedGustMPH,Humidity,HourlyPrecipIn,Conditions,Clouds,dailyrainin,SoftwareType,DateUTC
2013-09-11 00:24:00,80.0,71.0,-100.00,South,175,6.0,9.0,74,-99.99,,,-99.99,,2013-09-11 04:24:00,
2013-09-11 00:54:00,78.0,70.0,-100.00,SSE,165,5.0,11.0,75,-99.99,,,-99.99,,2013-09-11 04:54:00,
2013-09-11 01:23:00,78.0,69.0,-100.00,SSE,155,4.0,9.0,74,-99.99,,,-99.99,,2013-09-11 05:23:00,
2013-09-11 01:53:00,78.0,69.0,-100.00,SSE,160,5.0,10.0,74,-99.99,,,-99.99,,2013-09-11 05:53:00,
2013-09-11 02:12:00,78.0,69.0,-100.00,SSE,160,6.0,11.0,74,-99.99,,,-99.99,,2013-09-11 06:12:00,
2013-09-11 02:22:00,77.0,69.0,-100.00,SE,145,4.0,9.0,75,-99.99,,,-99.99,,2013-09-11 06:22:00,
2013-09-11 02:52:00,77.0,69.0,-100.00,South,170,5.0,11.0,75,-99.99,,,-99.99,,2013-09-11 06:52:00,
2013-09-11 03:23:00,76.0,68.0,-100.00,SSE,165,6.0,9.0,77,-99.99,,,-99.99,,2013-09-11 07:23:00,
2013-09-11 03:52:00,76.0,68.0,-100.00,SSE,155,4.0,7.0,77,-99.99,,,-99.99,,2013-09-11 07:52:00,
2013-09-11 04:22:00,75.0,68.0,-100.00,SSE,160,4.0,10.0,79,-99.99,,,-99.99,,2013-09-11 08:22:00,
2013-09-11 04:52:00,75.0,68.0,-100.00,SSE,155,4.0,9.0,78,-99.99,,,-99.99,,2013-09-11 08:52:00,
2013-09-11 05:21:00,74.0,68.0,-100.00,South,170,5.0,9.0,79,-99.99,,,-99.99,,2013-09-11 09:21:00,
2013-09-11 05:53:00,74.0,67.0,-100.00,SSE,165,5.0,12.0,79,-99.99,,,-99.99,,2013-09-11 09:53:00,
2013-09-11 06:23:00,74.0,68.0,-100.00,SSE,160,3.0,9.0,80,-99.99,,,-99.99,,2013-09-11 10:23:00,
2013-09-11 06:53:00,74.0,67.0,-100.00,SSE,150,5.0,9.0,80,-99.99,,,-99.99,,2013-09-11 10:53:00,
2013-09-11 07:03:00,74.0,67.0,-100.00,SSE,150,5.0,9.0,80,-99.99,,,-99.99,,2013-09-11 11:03:00,
2013-09-11 07:21:00,73.0,67.0,-100.00,SSE,150,4.0,9.0,82,-99.99,,,-99.99,,2013-09-11 11:21:00,
2013-09-11 07:52:00,74.0,67.0,-100.00,SSE,160,6.0,9.0,80,-99.99,,,-99.99,,2013-09-11 11:52:00,
2013-09-11 08:21:00,74.0,68.0,-100.00,SSE,155,4.0,10.0,80,-99.99,,,-99.99,,2013-09-11 12:21:00,
2013-09-11 08:52:00,75.0,68.0,-100.00,SSE,150,6.0,10.0,80,-99.99,,,-99.99,,2013-09-11 12:52:00,
2013-09-11 09:22:00,76.0,69.0,-100.00,SSE,150,6.0,11.0,77,-99.99,,,-99.99,,2013-09-11 13:22:00,
2013-09-11 09:32:00,76.0,69.0,-100.00,SSE,150,6.0,11.0,77,-99.99,,,-99.99,,2013-09-11 13:32:00,
2013-09-11 09:52:00,76.0,69.0,-100.00,SSE,150,6.0,9.0,78,-99.99,,,-99.99,,2013-09-11 13:52:00,
2013-09-11 10:22:00,78.0,70.0,-100.00,SSE,150,3.0,10.0,76,-99.99,,,-99.99,,2013-09-11 14:22:00,
2013-09-11 10:52:00,80.0,71.0,-100.00,SSE,165,4.0,8.0,72,-99.99,,,-99.99,,2013-09-11 14:52:00,
2013-09-11 12:23:00,89.0,71.0,-100.00,SSE,165,6.0,12.0,54,-99.99,,,-99.99,,2013-09-11 16:23:00,
2013-09-11 13:23:00,92.0,69.0,-100.00,South,170,8.0,12.0,47,-99.99,,,-99.99,,2013-09-11 17:23:00,
2013-09-11 13:52:00,92.0,67.0,-100.00,SW,215,9.0,15.0,43,-99.99,,,-99.99,,2013-09-11 17:52:00,
2013-09-11 14:22:00,94.0,67.0,-100.00,NE,35,7.0,17.0,41,-99.99,,,-99.99,,2013-09-11 18:22:00,
2013-09-11 14:42:00,92.0,65.0,-100.00,NE,35,7.0,12.0,40,-99.99,,,-99.99,,2013-09-11 18:42:00,
2013-09-11 14:52:00,95.0,62.0,-100.00,NNE,25,12.0,20.0,34,-99.99,,,-99.99,,2013-09-11 18:52:00,
2013-09-11 15:22:00,95.0,63.0,-100.00,South,175,12.0,17.0,34,-99.99,,,-99.99,,2013-09-11 19:22:00,
2013-09-11 15:42:00,95.0,62.0,-100.00,SSE,165,8.0,15.0,33,-99.99,,,-99.99,,2013-09-11 19:42:00,
2013-09-11 15:52:00,94.0,61.0,-100.00,South,185,10.0,17.0,33,-99.99,,,-99.99,,2013-09-11 19:52:00,
2013-09-11 16:12:00,95.0,62.0,-100.00,South,190,5.0,13.0,33,-99.99,,,-99.99,,2013-09-11 20:12:00,
2013-09-11 16:22:00,95.0,62.0,-100.00,South,190,5.0,13.0,33,-99.99,,,-99.99,,2013-09-11 20:22:00,
2013-09-11 16:52:00,95.0,61.0,-100.00,NNE,25,9.0,16.0,32,-99.99,,,-99.99,,2013-09-11 20:52:00,
2013-09-11 17:22:00,95.0,60.0,-100.00,NNE,15,7.0,17.0,31,-99.99,,,-99.99,,2013-09-11 21:22:00,
2013-09-11 17:54:00,94.0,61.0,-100.00,South,175,9.0,14.0,33,-99.99,,,-99.99,,2013-09-11 21:54:00,
2013-09-11 18:05:00,94.0,61.0,-100.00,South,175,9.0,14.0,33,-99.99,,,-99.99,,2013-09-11 22:05:00,
2013-09-11 18:24:00,91.0,63.0,-100.00,NNE,20,5.0,7.0,40,-99.99,,,-99.99,,2013-09-11 22:24:00,
2013-09-11 18:54:00,87.0,66.0,-100.00,NNE,25,4.0,10.0,49,-99.99,,,-99.99,,2013-09-11 22:54:00,
2013-09-11 19:22:00,85.0,67.0,-100.00,SE,130,7.0,11.0,54,-99.99,,,-99.99,,2013-09-11 23:22:00,
2013-09-11 19:53:00,84.0,68.0,-100.00,ESE,120,6.0,11.0,58,-99.99,,,-99.99,,2013-09-11 23:53:00,
2013-09-11 20:22:00,82.0,68.0,-100.00,ESE,120,6.0,9.0,61,-99.99,,,-99.99,,2013-09-12 00:22:00,
2013-09-11 20:52:00,82.0,68.0,-100.00,SE,135,6.0,9.0,62,-99.99,,,-99.99,,2013-09-12 00:52:00,
2013-09-11 21:11:00,81.0,68.0,-100.00,SE,130,4.0,8.0,64,-99.99,,,-99.99,,2013-09-12 01:11:00,
2013-09-11 21:52:00,80.0,66.0,-100.00,SW,225,4.0,9.0,63,-99.99,,,-99.99,,2013-09-12 01:52:00,
2013-09-11 22:22:00,76.0,67.0,-100.00,North,0,0.0,0.0,75,-99.99,,,-99.99,,2013-09-12 02:22:00,
2013-09-11 23:22:00,73.0,68.0,-100.00,East,90,2.0,3.0,83,-99.99,,,-99.99,,2013-09-12 03:22:00,
2013-09-11 23:55:00,74.0,68.0,-100.00,NE,35,0.0,0.0,81,-99.99,,,-99.99,,2013-09-12 03:55:00,